Regional Weather Roundup
Issued by NWS

Home | Current Version | Previous Version | Text Only | Print | Product List | Glossary Off
Versions: 1 2 3 4 5 6 7 8 9 10 11 12 13 14 15 16 17 18 19 20 21 22 23 24 25 26 27 28 29 30 31 32 33 34 35 36 37 38 39 40 41 42 43 44 45 46 47 48 49 50

000
ASUS43 KMKX 221231
RWRWI

WISCONSIN REGIONAL WEATHER ROUNDUP
NATIONAL WEATHER SERVICE MILWAUKEE/SULLIVAN WI
800 AM CDT FRI MAY 22 2015

NOTE: "FAIR" INDICATES FEW OR NO CLOUDS BELOW 12,000 FEET WITH NO
SIGNIFICANT WEATHER AND/OR OBSTRUCTIONS TO VISIBILITY.

WIZ001-002-006>008-014>016-023>028-221400-
NORTHWEST WISCONSIN

CITY           SKY/WX    TMP DP  RH WIND       PRES   REMARKS
SUPERIOR ARPT  SUNNY     40  37  89 CALM      30.21R
ASHLAND        SUNNY     42  34  73 CALM      30.19R
HAYWARD        SUNNY     37  33  85 N5        30.19R WCI  33
SIREN          SUNNY     39  36  89 CALM      30.19S
CUMBERLAND     SUNNY     41  37  87 CALM      30.19R
RICE LAKE      SUNNY     44  40  85 CALM      30.20R
CHETEK         SUNNY     42  39  89 CALM      30.19R
LADYSMITH      SUNNY     40  38  92 CALM      30.20R
EAU CLAIRE     SUNNY     45  40  82 NE5       30.18R
MENOMONIE      SUNNY     46  38  75 NW3       30.19R
NEW RICHMOND   SUNNY     44  39  81 CALM      30.19R
OSCEOLA        SUNNY     42  42 100 CALM      30.22R
$$

WIZ003>005-009-010-017-018-221400-
NORTH CENTRAL WISCONSIN

CITY           SKY/WX    TMP DP  RH WIND       PRES   REMARKS
MANITOWISH WTR SUNNY     37  37 100 CALM      30.18S
ARBOR VITAE    SUNNY     40  34  76 CALM      30.18R
WOODRUFF       SUNNY     40  34  76 CALM      30.18R
RHINELANDER    SUNNY     41  31  67 CALM      30.19R
EAGLE RIVER    SUNNY     37  32  82 CALM      30.18R
LAND O LAKES   SUNNY     36  32  85 CALM      30.20R
PHILLIPS       SUNNY     36  35  94 CALM      30.18R
TOMAHAWK       SUNNY     33  32  96 CALM      30.19R
MEDFORD        SUNNY     40  37  89 CALM      30.19R
MERRILL        SUNNY     37  35  95 CALM      30.20R
$$

WIZ029-030-035-036-043>047-221400-
CENTRAL WISCONSIN

CITY           SKY/WX    TMP DP  RH WIND       PRES   REMARKS
WAUSAU         SUNNY     41  36  82 E6        30.18R
MOSINEE        SUNNY     41  36  81 VRB5      30.20R
MARSHFIELD     SUNNY     46  38  73 E6        30.19R
STEVENS POINT  SUNNY     39  34  82 CALM      30.20R
WAUPACA        SUNNY     43  39  86 CALM      30.21R
WAUTOMA        SUNNY     42  37  82 CALM      30.21R
WISC RAPIDS    SUNNY     45  34  65 E5        30.21R
CAMP DOUGLAS   SUNNY     40  40 100 E2        30.19R
$$

WIZ011>013-019>022-031-037>040-048>050-221400-
NORTHEAST WISCONSIN

CITY           SKY/WX    TMP DP  RH WIND       PRES   REMARKS
ANTIGO         SUNNY     38  32  80 CALM      30.20R
SHAWANO        SUNNY     43  37  80 CALM      30.21R
OCONTO         SUNNY     41  35  78 CALM      30.19S
STURGEON BAY   SUNNY     45  28  53 N7        30.22R
GREEN BAY      SUNNY     45  38  76 CALM      30.20R
MANITOWOC      SUNNY     44  37  76 CALM      30.21R
APPLETON       SUNNY     43  32  65 N6        30.20R
CLINTONVILLE   SUNNY     41  37  87 CALM      30.21R
OSHKOSH        SUNNY     47  36  65 CALM      30.19R
$$

WIZ032>034-041-042-053>061-221400-
SOUTHWEST WISCONSIN

CITY           SKY/WX    TMP DP  RH WIND       PRES   REMARKS
LA CROSSE      SUNNY     48  42  80 SE5       30.17R
SPARTA         SUNNY     38  37  94 CALM      30.19R
VIROQUA        SUNNY     48  41  78 E8        30.17R
BOSCOBEL       SUNNY     43  42  97 CALM      30.19R
PRAIRIE DU CHI FAIR      44  40  88 CALM      30.18R
PLATTEVILLE    SUNNY     49  42  78 E3        30.17R
$$

WIZ056-057-062-063-064-067-068-221400-
SOUTH CENTRAL WISCONSIN

CITY           SKY/WX    TMP DP  RH WIND       PRES   REMARKS
REEDSBURG      SUNNY     43  39  85 CALM      30.19R
BARABOO/DELLS  SUNNY     45  37  73 CALM      30.19R
LONE ROCK      SUNNY     45  41  86 CALM      30.19R
MINERAL POINT  SUNNY     50  36  57 E5        30.18R
MADISON        SUNNY     46  36  68 N5        30.19R
MIDDLETON      SUNNY     49  35  58 CALM      30.19R
WATERTOWN      SUNNY     45  35  67 CALM      30.18R
MONROE         SUNNY     48  34  57 NE7       30.17R
JANESVILLE     SUNNY     48  34  57 CALM      30.17R
$$

WIZ051-052-058>065-066-070>072-221400-
SOUTHEAST WISCONSIN

CITY           SKY/WX    TMP DP  RH WIND       PRES   REMARKS
MILWAUKEE      SUNNY     48  34  58 NE8       30.19R
WAUKESHA       SUNNY     45  32  61 E3        30.19R
MILWAUKEE/TIMM SUNNY     45  32  61 NE5       30.20R
RACINE         SUNNY     48  37  65 NE8       30.19R
BURLINGTON     SUNNY     44  37  76 CALM      30.17R
KENOSHA        SUNNY     48  38  68 NE5       30.17R
FOND DU LAC    SUNNY     46  32  58 CALM      30.20R
SHEBOYGAN      SUNNY     45  34  65 CALM      30.19R
WEST BEND      SUNNY     41  36  81 CALM      30.19R
JUNEAU         SUNNY     45  33  61 CALM      30.20R
$$

LSZ147-162-221400-
LAKE SUPERIOR

STATION/POSITION TIME  TEMP    WIND        PRES    WAVE
                       AIR SEA DIR/SP/G            HT/PER
                 (UTC) (F)     (DEG/KT/KT) (MB)    (FT/S)
W MID LAKE BUOY  1150   38 36   50/  6/  6   N/A     0
DEVILS ISLAND    1200   40      30/  3/  4   N/A
PORT WING        1100   36     170/  3/  4   N/A
SAXON HARBOR     1100   36     200/  2/  4   N/A
$$

LMZ867-665-643>646-221400-
LAKE MICHIGAN

STATION/POSITION TIME  TEMP    WIND        PRES    WAVE
                       AIR SEA DIR/SP/G            HT/PER
                 (UTC) (F)     (DEG/KT/KT) (MB)    (FT/S)
CHAMBERS ISLAND  1000   42     300/  5/  7   N/A
N MID LAKE BUOY  1150   38 36  320/  6/  8   N/A     1/ 3
NORTHPORT PIER   1200   45     360/  8/ 18   N/A
SISTER BAY       1147   44      10/ 11/ 13   N/A
KEWAUNEE LAKESHO 1100          300/  4/  5   N/A
SHEBOYGAN LAKESH 1200          350/  7/  8   N/A
PORT WASHINGTON  1100   47     310/  2/  5   N/A
ATWATER BUOY     1100   46 44  360/  6/  8   N/A
MILWAUKEE LAKESH 1100   49      10/  5/  7   N/A
S MID LAKE BUOY  1150   40 38  340/  8/  8   N/A
KENOSHA   LAKESH 1100   49      10/ 10/ 11   N/A
$$

TC  - TEMPERATURE IN CELSIUS
VSB - VISIBILITY IN STATUTE MILES
WCI - WIND CHILL INDEX
HX  - HEAT INDEX




USA.gov is the U.S. government's official web portal to all federal, state and local government web resources and services.